User: anonymous   Login
Location: Prague
(50.0830°N, 14.4670°E)
Time: 11:47:44
(UTC+01:00)
Language:

YUBILEINY - Orbit

View from above orbital plane
View from above orbital plane
View from above satellite
View from above satellite

Ground track
Ground track

The orbit data is extracted from the following two-line orbital elements,

1 32953U 08025A   21339.73716130  .00000021  00000-0  80971-4 0  9995
2 32953  82.5015 304.3994 0019139 326.8971  33.0914 12.43106154614262
Epoch (UTC): 05 December 2021 17:41:30
Eccentricity: 0.0019139
inclination: 82.5015°
perigee height: 1478 km
apogee height: 1508 km
right ascension of ascending node: 304.3994°
argument of perigee: 326.8971°
revolutions per day: 12.43106154
mean anomaly at epoch: 33.0914°
orbit number at epoch: 61426

The dashed part of the orbit path shows where the satellite is in the earth's shadow,  

DLR